Regional Weather Roundup
Issued by NWS

Home | Current Version | Previous Version | Graphics & Text | Print | Product List | Glossary On
Versions: 1 2 3 4 5 6 7 8 9 10 11 12 13 14 15 16 17 18 19 20 21 22 23 24 25 26 27 28 29 30 31 32 33 34 35 36 37 38 39 40 41 42 43 44 45 46 47 48 49 50
000
ASUS43 KDTX 180810
RWRMI
MICHIGAN HOURLY REGIONAL WEATHER ROUNDUP
NATIONAL WEATHER SERVICE DETROIT/PONTIAC MI
400 AM EDT THU SEP 18 2014

NOTE: "FAIR" INDICATES FEW OR NO CLOUDS BELOW 12,000 FEET WITH NO
SIGNIFICANT WEATHER AND/OR OBSTRUCTION TO VISIBILITY.

MIZ047>049-052>055-059>063-066>070-074>076-081>083-180900-
SOUTHEAST LOWER MICHIGAN

CITY           SKY/WX    TMP DP  RH WIND       PRES   REMARKS
ADRIAN         CLEAR     46  44  93 CALM      30.05S
ALMA           CLEAR     45  44  97 CALM      30.07R
ANN ARBOR      CLEAR     40  37  89 CALM      30.04S FOG
BAD AXE        CLEAR     50  50 100 N3        30.05S
DETROIT CITY   CLEAR     54  46  74 W3        30.03S
DETROIT        PTCLDY    52  45  77 CALM      30.04S
FLINT          CLEAR     50  44  80 CALM      30.05R
GROSSE ILE     CLEAR     52  46  82 NW5       30.02S
HILLSDALE      CLEAR     42  42 100 CALM      30.05R
HOWELL         CLEAR     44  43  96 CALM      30.04S

CITY           SKY/WX    TMP DP  RH WIND       PRES   REMARKS
JACKSON        CLEAR     42  40  92 CALM      30.05S
LAMBERTVILLE   CLEAR     45  43  93 CALM      30.04S
LANSING        CLEAR     45  43  93 CALM      30.06S
LAPEER         NOT AVBL
MASON            N/A     43  42  97 CALM      30.06R FOG
MONROE         CLEAR     46  45  93 CALM      30.02S
MT. CLEMENS    CLEAR     51  45  80 NW5       30.02R
PONTIAC        CLEAR     51  45  79 NW8       30.03S
PORT HOPE        N/A     56  51  84 NE13      30.03S
PORT HURON     CLEAR     46  46 100 NW5       30.02S
TRI CITIES     CLEAR     50  46  86 N6        30.06S
YPSILANTI      CLEAR     54  45  71 CALM      30.04S
$$
MIZ043>046-050>051-056>058-064>065-071>073-077>080-180900-
SOUTHWEST LOWER MICHIGAN

CITY           SKY/WX    TMP DP  RH WIND       PRES   REMARKS
BATTLE CREEK   CLEAR     46  42  86 CALM      30.06S
BENTON HARBOR  CLEAR     41  40  96 E3        30.05S
BIG RAPIDS     CLOUDY    44  44 100 CALM      30.07R
COLDWATER      FOG       44  43  97 CALM      30.05S VSB 1/4
HOLLAND        CLEAR     45  43  93 CALM      30.06S
GRAND RAPIDS   CLEAR     46  43  89 CALM      30.06S
KALAMAZOO      CLEAR     43  41  93 CALM      30.06R FOG
MARSHALL       CLEAR     40  39  96 S9        30.06R
MUSKEGON       CLEAR     48  45  89 MISG      30.06R
$$
MIZ016>042-180900-
NORTHERN LOWER MICHIGAN

CITY           SKY/WX    TMP DP  RH WIND       PRES   REMARKS
ALPENA         CLOUDY    47  43  86 NE10      30.10R
BEAVER ISLAND  CLOUDY    46  40  78 NE7       30.13R
BELLAIRE       CLOUDY    49  45  83 N5        30.09S
CADILLAC       CLOUDY    47  47 100 CALM      30.06F
CHARLEVOIX     CLOUDY    49  43  81 NE10      30.13S
FRANKFORT      PTSUNNY   52  45  76 NE5       30.09R
GAYLORD        CLOUDY    45  42  89 NE9       30.08S
GRAYLING       CLOUDY    49  48  97 NE6       30.08S
HARBOR SPRINGS CLOUDY    47  40  78 N7        30.11R
HOUGHTON LAKE  CLOUDY    47  46  97 NE5       30.07R
MANISTEE       CLOUDY    52  45  76 N5        30.08S
OSCODA         CLOUDY    51  48  89 N13       30.06R
PELLSTON       CLOUDY    46  42  86 N7        30.12R
TRAVERSE CITY  CLOUDY    53  45  74 N9        30.07S
$$
MIZ007>008-015-180900-
EASTERN UPPER MICHIGAN

CITY           SKY/WX    TMP DP  RH WIND       PRES   REMARKS
KINROSS        CLOUDY    41  36  81 CALM      30.15R
MACKINAC ISLAN CLOUDY    43  38  83 NE10G16   30.13R
NEWBERRY       CLOUDY    40  36  84 NW3       30.14S
S. S. MARIE    CLEAR     38  32  79 CALM      30.15R
$$
MIZ004>006-011>014-085-180900-
CENTRAL UPPER MICHIGAN

CITY           SKY/WX    TMP DP  RH WIND       PRES   REMARKS
MANISTIQUE     CLOUDY    42  36  80 N7        30.14S
ESCANABA       CLOUDY    43  34  70 NE7       30.16S
MENOMINEE      CLOUDY    43  34  70 N7        30.14S
SAWYER-GWINN   CLOUDY    41  33  73 NE5       30.15S
$$
MIZ001>003-009>011-084-180900-
WESTERN UPPER MICHIGAN

CITY           SKY/WX    TMP DP  RH WIND       PRES   REMARKS
IRON MOUNTAIN  CLOUDY    41  34  76 CALM      30.15S
HOUGHTON       CLOUDY    37  32  82 NE5       30.15F
COPPER HARBOR    N/A     38  33  82 SW5       30.18R
IRONWOOD       MOCLDY    37  36  93 E7        30.13S
$$

ABBREVIATIONS USED IN REMARKS
   TC - TEMPERATURE IN CELSIUS
  WCI - WIND CHILL INDEX
   HX - HEAT INDEX
  VSB - VISIBILITY




USA.gov is the U.S. government's official web portal to all federal, state and local government web resources and services.